Stations météo

réclame
Mon MeteoGroup
Augsburg, Allemagne (10852): Température de l'air & dewpoint: 12.11.2018 05:00:00 - 18.11.2018 05:00:00 (CET)Augsburg, Allemagne (10852): Température de l'air 5cm & Température de l'air -5cm: 12.11.2018 05:00:00 - 18.11.2018 05:00:00 (CET)Augsburg, Allemagne (10852): Température de l'air -20cm: 12.11.2018 05:00:00 - 18.11.2018 05:00:00 (CET)Augsburg, Allemagne (10852): Vitesse du vent & gusts: 12.11.2018 05:00:00 - 18.11.2018 05:00:00 (CET)Augsburg, Allemagne (10852): Direction du vent: 12.11.2018 05:00:00 - 18.11.2018 05:00:00 (CET)Augsburg, Allemagne (10852): reduced air pressure: 12.11.2018 05:00:00 - 18.11.2018 05:00:00 (CET)Augsburg, Allemagne (10852): visibility: 12.11.2018 05:00:00 - 18.11.2018 05:00:00 (CET)Augsburg, Allemagne (10852): Ensoleillement: 12.11.2018 05:00:00 - 18.11.2018 05:00:00 (CET)Augsburg, Allemagne (10852): Quantités de précipitations: 12.11.2018 05:00:00 - 18.11.2018 05:00:00 (CET)
Date & Time tt [°C] td [°C] tt 5cm [°C] tt -5cm [°C] tt -20cm [°C] ff [km/h] ff [knt] fx [km/h] fx [knt] dd ppp [hPa] vv [km] sd [min] rr [mm]
18.11.2018 05:00:00 -1,7 -3,8 -4,2 -0,1 3,6 8 4 14 8 NE 1027,3 15 0 0,0
18.11.2018 04:00:00 -2,0 -4,1 -4,9 0,1 3,7 8 4 11 6 NNE 1027,7 10 0 0,0
18.11.2018 03:00:00 -1,5 -3,7 -4,0 0,3 3,8 8 5 19 10 NE 1028,2 18 0 0,0
18.11.2018 02:00:00 -1,1 -3,6 -2,8 0,4 4,0 12 7 19 10 NE 1028,3 17 0 0,0
18.11.2018 01:00:00 -0,7 -3,3 -3,2 0,6 4,1 8 4 18 10 NE 1028,3 18 0 0,0
18.11.2018 00:00:00 -0,5 -3,5 -2,7 0,8 4,2 10 5 22 12 NE 1028,8 19 0 0,0
17.11.2018 23:00:00 0,6 -3,4 -1,1 0,9 4,3 14 7 27 15 E 1028,7 24 0 0,0
17.11.2018 22:00:00 1,0 -3,4 -0,6 1,1 4,5 15 8 26 14 NE 1028,5 10 0 0,0
17.11.2018 21:00:00 1,1 -2,8 -0,8 1,2 4,6 13 7 28 15 ENE 1028,8 10 0 0,0
17.11.2018 20:00:00 1,3 -1,8 -0,4 1,3 4,8 16 9 27 14 ENE 1028,8 15 0 0,0
17.11.2018 19:00:00 2,3 -1,0 0,0 1,6 5,0 11 6 22 12 NE 1028,9 10 0 0,0
17.11.2018 18:00:00 2,5 -0,9 -0,3 2,4 5,1 13 7 21 12 ENE 1028,8 20 0 0,0
17.11.2018 17:00:00 4,4 -2,0 2,2 3,6 5,0 21 11 38 20 ENE 1027,8 10 21 0,0
17.11.2018 16:00:00 6,6 -0,9 5,6 5,1 4,8 18 10 39 21 ENE 1026,9 10 60 0,0
17.11.2018 15:00:00 7,6 -0,3 7,8 6,2 4,5 16 9 41 22 E 1026,5 10 60 0,0
17.11.2018 14:00:00 7,6 -0,6 8,2 6,3 4,1 29 16 43 23 E 1026,6 16 60 0,0
17.11.2018 13:00:00 7,3 0,6 8,4 5,5 3,7 24 13 38 21 ENE 1027,0 10 60 0,0
17.11.2018 12:00:00 6,5 0,3 7,9 3,4 3,6 21 12 34 19 E 1027,5 14 60 0,0
17.11.2018 11:00:00 4,9 0,1 5,8 0,2 3,7 26 14 41 22 E 1028,0 9 60 0,0
17.11.2018 10:00:00 3,5 -0,2 2,9 0,1 3,8 17 9 35 19 E 1028,4 19 60 0,0
17.11.2018 09:00:00 1,7 -0,8 0,2 0,1 3,9 5 3 34 18 - 1028,8 10 55 0,0
17.11.2018 08:00:00 -0,3 -1,8 -2,5 0,0 4,0 2 1 18 10 - 1028,9 10 0 0,0
17.11.2018 07:00:00 -1,4 -2,3 -4,5 0,1 4,1 9 5 20 11 NE 1028,8 10 0 0,0
17.11.2018 06:00:00 -0,6 -1,8 -2,4 0,3 4,3 13 7 21 12 ENE 1028,5 11 0 0,0
17.11.2018 05:00:00 -1,3 -2,1 -3,6 0,4 4,4 11 6 14 7 NE 1029,1 10 0 0,0
17.11.2018 04:00:00 -1,2 -1,8 -3,7 0,6 4,5 8 5 17 9 NNE 1029,5 8 0 0,0
17.11.2018 03:00:00 -1,4 -1,8 -5,6 0,7 4,7 9 5 10 5 NNE 1029,5 10 0 0,0
17.11.2018 02:00:00 -1,0 -1,3 -5,5 0,9 4,9 6 3 8 5 NNE 1029,5 6 0 0,0
17.11.2018 01:00:00 -0,2 -0,9 -3,7 1,1 5,0 5 3 18 10 NE 1029,0 10 0 0,0
17.11.2018 00:00:00 0,3 -0,6 -1,6 1,2 5,2 9 5 16 9 NE 1029,4 10 0 0,0
16.11.2018 23:00:00 0,7 -0,3 -2,2 1,3 5,4 9 5 15 8 NE 1029,4 8 0 0,0
16.11.2018 22:00:00 0,3 -0,6 -3,5 1,4 5,6 4 2 6 3 NNE 1029,6 9 0 0,0
16.11.2018 21:00:00 1,3 0,2 -2,7 1,6 5,9 6 3 15 8 ENE 1029,5 9 0 0,0
16.11.2018 20:00:00 2,4 0,7 -1,0 1,8 6,1 10 5 15 8 ENE 1029,4 11 0 0,0
16.11.2018 19:00:00 0,7 -0,3 -4,0 2,2 6,4 5 3 7 4 NNE 1029,8 8 0 0,0
16.11.2018 18:00:00 1,0 0,0 -3,2 3,2 6,5 6 3 7 4 ENE 1029,6 7 0 0,0
16.11.2018 17:00:00 3,9 1,5 -1,2 4,6 6,6 4 2 9 5 ENE 1029,1 10 15 0,0
16.11.2018 16:00:00 5,1 1,7 4,2 6,1 6,4 11 6 25 14 ENE 1028,9 10 60 0,0
16.11.2018 15:00:00 5,7 2,2 6,3 7,0 6,3 14 8 29 16 E 1028,8 10 60 0,0
16.11.2018 14:00:00 4,8 1,6 5,7 6,3 6,1 16 9 34 18 ESE 1029,5 9 30 0,0
16.11.2018 13:00:00 3,8 1,8 4,9 6,0 6,0 19 11 42 23 ESE 1030,1 7 13 0,0
16.11.2018 12:00:00 3,1 1,5 4,2 5,3 5,9 17 9 29 15 ESE 1030,7 5 0 0,0
16.11.2018 11:00:00 2,7 1,4 3,7 4,6 5,8 17 9 32 18 ESE 1031,1 5 0 0,0
16.11.2018 10:00:00 2,2 1,0 2,9 3,9 5,9 19 10 37 20 ESE 1030,8 5 0 0,0
16.11.2018 09:00:00 1,7 0,7 2,1 3,5 5,9 11 6 20 11 E 1031,1 6 0 0,0
16.11.2018 08:00:00 1,4 0,9 1,5 3,2 6,0 9 5 12 6 E 1030,7 4,7 0 0,0
16.11.2018 07:00:00 0,8 0,7 1,1 3,1 6,1 8 4 11 6 ENE 1030,2 4,2 0 0,0
16.11.2018 06:00:00 0,3 0,3 0,6 3,0 6,3 8 4 11 6 ENE 1030,3 2,0 0 0,0
16.11.2018 05:00:00 0,1 0,1 -0,4 3,0 6,5 10 5 12 6 E 1030,1 2,0 0 0,0
16.11.2018 04:00:00 0,6 0,6 0,6 3,6 6,6 8 4 9 5 NNE 1030,0 0,9 0 0,0
16.11.2018 03:00:00 0,4 0,4 -0,7 3,6 6,8 7 4 9 5 ENE 1030,3 0,1 0 0,0
16.11.2018 02:00:00 1,5 1,3 0,6 4,6 6,9 6 4 18 10 NE 1029,9 1,6 0 0,0
16.11.2018 01:00:00 4,2 3,6 4,3 5,3 6,9 10 6 17 9 ESE 1029,5 4,1 0 0,0
16.11.2018 00:00:00 4,2 3,9 4,4 5,4 6,9 9 5 17 9 E 1029,3 5 0 0,0
15.11.2018 23:00:00 4,4 3,9 4,5 5,5 7,0 8 4 13 7 ENE 1029,0 5 0 0,0
15.11.2018 22:00:00 4,5 4,3 4,5 5,5 7,0 6 3 10 5 ENE 1028,7 3,8 0 0,0
15.11.2018 21:00:00 4,5 4,3 4,6 5,6 7,0 5 3 6 3 ENE 1028,8 4,6 0 0,0
15.11.2018 20:00:00 4,6 3,9 4,7 5,7 7,0 2 1 6 3 E 1028,9 6 0 0,0
15.11.2018 19:00:00 4,3 3,8 4,5 5,7 7,1 2 1 5 3 E 1028,9 8 0 0,0
15.11.2018 18:00:00 4,3 3,6 4,4 5,7 7,1 5 3 14 8 SSE 1028,7 9 0 0,0
15.11.2018 17:00:00 4,1 3,3 4,2 5,9 7,1 10 6 16 8 ESE 1028,4 12 0 0,0
15.11.2018 16:00:00 4,2 4,2 4,6 6,3 7,1 6 4 15 8 E 1028,4 6 0 0,0
15.11.2018 15:00:00 4,2 4,2 4,7 6,6 7,0 9 5 14 7 E 1028,5 6 0 0,0
15.11.2018 14:00:00 4,5 4,5 5,2 6,7 7,0 9 5 13 7 ESE 1028,5 6 0 0,0
15.11.2018 13:00:00 4,3 4,2 5,1 6,6 6,9 11 6 13 7 ESE 1028,7 6 0 0,0
15.11.2018 12:00:00 4,1 3,9 5,0 6,3 6,8 11 6 16 8 SE 1029,3 8 0 0,0
15.11.2018 11:00:00 3,8 3,8 4,5 6,0 6,8 7 4 13 7 SE 1029,6 4,8 0 0,0
15.11.2018 10:00:00 3,7 3,6 4,2 5,6 6,8 9 5 16 9 ESE 1029,5 8 0 0,0
15.11.2018 09:00:00 3,5 3,5 4,0 5,4 6,8 4 2 15 8 - 1029,4 2,7 0 0,0
15.11.2018 08:00:00 3,5 3,5 3,9 5,3 6,9 5 3 13 7 ESE 1029,5 1,9 0 0,0
15.11.2018 07:00:00 3,7 3,7 4,0 5,4 6,9 8 4 13 7 ENE 1029,2 2,0 0 0,0
15.11.2018 06:00:00 3,8 3,8 4,2 5,5 6,9 4 2 16 9 ESE 1029,2 0,6 0 0,0
15.11.2018 05:00:00 3,7 3,7 4,1 5,5 7,0 9 5 14 7 ESE 1029,3 0,8 0 0,0
15.11.2018 04:00:00 4,0 4,0 4,4 5,6 7,0 8 4 16 9 SE 1029,1 0,8 0 0,0
15.11.2018 03:00:00 4,6 4,6 4,8 5,7 7,0 11 6 19 10 SE 1029,1 3,8 0 0,0
15.11.2018 02:00:00 4,7 4,7 4,9 5,8 7,0 10 5 15 8 ESE 1029,3 2,9 0 0,0
15.11.2018 01:00:00 5,0 5,0 5,2 5,8 7,0 9 5 14 8 E 1029,4 5 0 0,0
15.11.2018 00:00:00 5,0 5,0 5,1 5,8 7,0 8 4 15 8 E 1029,8 5 0 0,0
14.11.2018 23:00:00 4,9 4,9 5,0 5,8 7,0 13 7 19 11 ESE 1030,2 6 0 0,0
14.11.2018 22:00:00 4,8 4,8 5,0 5,9 7,1 12 6 17 9 SE 1030,1 4,6 0 0,0
14.11.2018 21:00:00 4,7 4,7 4,9 5,9 7,1 8 5 17 9 ESE 1030,7 2,0 0 0,0
14.11.2018 20:00:00 4,7 4,7 5,0 6,0 7,1 7 4 17 9 E 1030,9 1,2 0 0,0
14.11.2018 19:00:00 4,8 4,8 5,0 6,1 7,1 8 4 16 9 ESE 1030,6 4,2 0 0,0
14.11.2018 18:00:00 4,7 4,7 5,0 6,3 7,1 11 6 17 9 ESE 1030,8 3,4 0 0,0
14.11.2018 17:00:00 5,1 5,0 5,3 6,6 7,0 11 6 18 10 E 1030,8 6 0 0,0
14.11.2018 16:00:00 5,2 4,9 5,7 7,2 6,9 15 8 20 11 ESE 1030,8 8 0 0,0
14.11.2018 15:00:00 5,6 5,5 6,5 7,6 6,6 9 5 18 10 E 1030,7 7 0 0,0
14.11.2018 14:00:00 5,0 5,0 6,3 7,7 6,4 9 5 16 9 E 1031,1 4,8 0 0,0
14.11.2018 13:00:00 4,4 4,4 6,3 7,4 6,1 10 6 16 9 E 1031,6 5 0 0,0
14.11.2018 12:00:00 3,8 3,8 5,6 6,7 5,9 8 4 14 7 E 1032,0 1,9 0 0,0
14.11.2018 11:00:00 2,8 2,8 4,7 5,6 5,7 6 3 10 5 SSE 1032,7 0,4 0 0,0
14.11.2018 10:00:00 1,3 1,3 2,8 4,3 5,7 4 2 7 4 SE 1033,6 0,2 0 0,0
14.11.2018 09:00:00 0,2 0,2 1,1 3,3 5,8 3 2 6 3 E 1033,9 0,1 0 0,0
14.11.2018 08:00:00 -0,3 -0,3 0,1 2,6 5,8 3 2 4 2 ESE 1034,0 0,2 0 0,0
14.11.2018 07:00:00 -0,2 -0,2 0,0 2,8 5,9 3 2 5 3 S 1034,0 0,1 0 0,0
14.11.2018 06:00:00 -0,1 -0,1 0,0 2,6 6,0 4 2 4 2 SE 1034,2 0,8 0 0,0
14.11.2018 05:00:00 0,1 0,1 0,0 2,7 6,2 4 2 6 3 ENE 1034,3 0,3 0 0,0
14.11.2018 04:00:00 -0,2 -0,2 -0,5 2,4 6,3 2 1 4 2 WNW 1034,3 0,1 0 0,0
14.11.2018 03:00:00 0,4 0,4 -1,1 2,4 6,5 0 0 5 3 N 1034,4 0,1 0 0,0
14.11.2018 02:00:00 0,4 0,4 -0,9 2,5 6,8 4 2 9 5 S 1034,4 0,1 0 0,0
14.11.2018 01:00:00 0,4 0,4 -1,7 2,8 7,0 8 4 10 5 SE 1034,5 0,2 0 0,0
14.11.2018 00:00:00 1,2 1,2 -0,9 3,1 7,2 4 2 5 3 SSE 1034,6 0,2 0 0,0
13.11.2018 23:00:00 1,5 1,5 -1,0 3,4 7,5 5 3 6 3 S 1034,6 0,2 0 0,0
13.11.2018 22:00:00 1,9 1,9 -0,4 3,9 7,7 6 3 9 5 E 1034,2 0,2 0 0,0
13.11.2018 21:00:00 5,7 5,7 0,4 4,5 7,9 4 2 8 4 - 1033,2 10 0 0,0
13.11.2018 20:00:00 5,8 5,8 1,3 5,2 8,0 6 3 15 8 S 1032,9 12 0 0,0
13.11.2018 19:00:00 6,7 6,6 3,9 5,9 8,1 10 5 14 8 SW 1032,1 16 0 0,0
13.11.2018 18:00:00 6,8 6,6 3,8 7,1 8,1 11 6 20 11 SW 1032,2 10 0 0,0
13.11.2018 17:00:00 9,1 7,8 7,8 8,0 8,1 15 8 21 11 SW 1031,2 10 0 0,0
13.11.2018 16:00:00 9,3 8,1 8,5 8,3 7,9 15 8 27 14 WSW 1030,4 41 0 0,1
13.11.2018 15:00:00 9,9 7,9 8,9 8,4 7,8 17 9 27 14 W 1029,6 43 0 0,1
13.11.2018 14:00:00 10,1 8,5 9,4 8,3 7,6 16 8 23 12 WSW 1028,9 55 0 0,0
13.11.2018 13:00:00 9,8 8,5 9,2 8,0 7,4 15 8 19 10 SW 1028,4 40 0 0,0
13.11.2018 12:00:00 9,2 8,5 8,7 7,7 7,2 10 5 13 7 WNW 1028,7 25 0 0,0
13.11.2018 11:00:00 7,5 7,3 8,1 7,4 7,0 3 2 6 4 E 1028,6 12 0 0,0
13.11.2018 10:00:00 5,9 5,5 6,7 6,4 6,9 0 0 5 3 N 1027,9 13 5 0,0
13.11.2018 09:00:00 4,6 4,3 6,7 4,9 7,0 0 0 5 3 N 1027,4 10 36 0,0
13.11.2018 08:00:00 1,7 1,7 1,1 3,9 7,1 2 1 8 4 S 1026,9 2,5 0 0,0
13.11.2018 07:00:00 1,9 1,9 1,6 4,2 7,2 5 3 8 4 SE 1026,0 0,6 0 0,0
13.11.2018 06:00:00 2,4 2,4 2,5 4,1 7,3 4 2 14 7 ENE 1025,3 0,3 0 0,0
13.11.2018 05:00:00 1,5 1,5 1,5 3,9 7,5 4 2 5 3 SSW 1024,8 0,1 0 0,0
13.11.2018 04:00:00 1,2 1,2 -0,2 3,9 7,7 4 2 5 3 NW 1024,7 0,6 0 0,0
13.11.2018 03:00:00 1,4 1,4 0,5 4,2 7,9 2 1 5 3 - 1024,5 0,5 0 0,0
13.11.2018 02:00:00 2,4 2,4 1,1 4,4 8,1 2 1 6 3 NW 1024,2 0,3 0 0,0
13.11.2018 01:00:00 2,9 2,9 0,8 4,5 8,4 4 2 6 3 ESE 1024,2 0,6 0 0,0
13.11.2018 00:00:00 3,0 3,0 -0,1 4,8 8,6 0 0 6 3 S 1024,3 0,5 0 0,0
12.11.2018 23:00:00 2,3 2,3 0,7 5,2 8,8 5 3 8 5 S 1024,3 0,2 0 0,0
12.11.2018 22:00:00 3,4 3,4 0,5 5,6 9,1 0 0 6 3 N 1024,3 0,6 0 0,0
12.11.2018 21:00:00 3,6 3,6 0,3 6,1 9,4 4 2 6 3 E 1024,2 0,9 0 0,0
12.11.2018 20:00:00 4,1 4,1 1,5 6,8 9,6 0 0 5 3 N 1023,6 0,6 0 0,0
12.11.2018 19:00:00 5,3 5,3 2,2 7,6 9,8 5 3 11 6 E 1022,9 10 0 0,0
12.11.2018 18:00:00 5,9 5,9 4,6 8,7 9,8 8 4 11 6 E 1022,1 2,5 0 0,0
12.11.2018 17:00:00 8,3 7,8 5,5 10,2 9,7 2 1 10 6 - 1020,8 10 16 0,0
12.11.2018 16:00:00 10,5 9,0 9,1 11,9 9,4 8 4 13 7 N 1020,1 10 51 0,0
12.11.2018 15:00:00 11,4 9,3 13,0 12,6 9,0 6 3 14 7 NNE 1019,7 14 50 0,0
12.11.2018 14:00:00 11,6 8,9 14,8 13,0 8,5 11 6 16 8 NNW 1019,1 10 60 0,0
12.11.2018 13:00:00 11,0 8,7 13,6 12,5 8,0 12 6 16 8 NNE 1018,9 10 60 0,0
12.11.2018 12:00:00 12,1 8,6 13,1 11,1 7,6 4 2 12 7 E 1018,8 23 60 0,0
12.11.2018 11:00:00 8,1 7,1 10,2 8,8 7,3 11 6 17 9 NNE 1019,8 10 60 0,0
12.11.2018 10:00:00 6,6 5,8 9,3 6,8 7,3 7 4 10 5 NNE 1020,0 12 60 0,0
12.11.2018 09:00:00 4,5 3,8 5,3 4,4 7,4 0 0 3 2 N 1020,2 5 60 0,0
12.11.2018 08:00:00 2,3 2,3 0,4 3,6 7,6 2 1 5 3 NW 1020,6 2,4 2 0,0
12.11.2018 07:00:00 1,6 1,6 -0,1 4,0 7,8 3 1 6 4 SW 1020,8 0,6 0 0,0
12.11.2018 06:00:00 2,0 2,0 0,9 4,3 8,0 3 1 12 7 SW 1020,5 0,1 0 0,0
12.11.2018 05:00:00 2,0 2,0 1,1 4,4 8,2 5 3 10 5 S 1020,5 0,2 0 0,0

tt = Température de l'air
td = dewpoint
tt 5cm = Température de l'air 5cm
tt -5cm = Température de l'air -5cm
tt -20cm = Température de l'air -20cm
ff = Vitesse du vent
fx = gusts
dd = Direction du vent
ppp = reduced air pressure
vv = visibility
sd = Ensoleillement
rr = Quantités de précipitations

stations d'obs. à proximité